User: anonymous
Location: Unspecified
(0.0000°N, 0.0000°E)
Time: 10:19:28
(UTC+02:00)
Language:

Ariane H10 - Orbit

View from above orbital plane
View from above orbital plane
View from above satellite
View from above satellite

Ground track
Ground track

The orbit data is extracted from the following two-line orbital elements,

1 19622U 88098B   14265.91171087  .00002977  00000-0  99740-3 0  8878
2 19622 003.8984 115.4212 6458632 355.3865 297.9193 03.35535935270256
Epoch (UTC): 22 September 2014 21:52:51
Eccentricity: 0.6458632
inclination: 3.8984°
perigee height: 296 km
apogee height: 24641 km
right ascension of ascending node: 115.4212°
argument of perigee: 355.3865°
revolutions per day: 3.35535935
mean anomaly at epoch: 297.9193°
orbit number at epoch: 27025

The dashed part of the orbit path shows where the satellite is in the earth's shadow,  

DLR